| time (UTC) | temp F | wind direction | speed MPH | gust MPH | rain 1hr in | rain 24hr in | rain mn in | humidity % | barometer mb |
| 20260505011023 | 78 | 159 | 2.0 | 3.0 | 0.00 | 0.00 | 0.00 | 68 | 1003.9 |
| 20260505010518 | 78 | 173 | 4.0 | 6.0 | 0.00 | 0.00 | 0.00 | 68 | 1003.9 |
| 20260505010015 | 78 | 149 | 3.0 | 5.0 | 0.00 | 0.00 | 0.00 | 67 | 1004.1 |
| 20260505005511 | 79 | 174 | 3.0 | 5.0 | 0.00 | 0.00 | 0.00 | 67 | 1004.2 |
| 20260505005009 | 79 | 176 | 3.0 | 5.0 | 0.00 | 0.00 | 0.00 | 67 | 1004.1 |
| 20260505004506 | 79 | 150 | 1.0 | 1.0 | 0.00 | 0.00 | 0.00 | 66 | 1004.0 |
| 20260505004002 | 80 | 153 | 1.0 | 2.0 | 0.00 | 0.00 | 0.00 | 66 | 1004.1 |
| 20260505003459 | 80 | 142 | 1.0 | 1.0 | 0.00 | 0.00 | 0.00 | 65 | 1004.2 |
| 20260505002956 | 80 | 155 | 2.0 | 3.0 | 0.00 | 0.00 | 0.00 | 65 | 1004.2 |
| 20260505002452 | 80 | 149 | 1.0 | 2.0 | 0.00 | 0.00 | 0.00 | 64 | 1004.2 |
| 20260505001950 | 80 | 160 | 3.0 | 6.0 | 0.00 | 0.00 | 0.00 | 64 | 1004.2 |
| 20260505001448 | 81 | 154 | 3.0 | 7.0 | 0.00 | 0.00 | 0.00 | 64 | 1004.4 |
| 20260505000944 | 81 | 180 | 1.0 | 2.0 | 0.00 | 0.00 | 0.00 | 63 | 1004.4 |
| 20260505000443 | 81 | 143 | 0.0 | 1.0 | 0.00 | 0.00 | 0.00 | 63 | 1004.3 |
| 20260504235939 | 81 | 183 | 2.0 | 2.0 | 0.00 | 0.00 | 0.00 | 63 | 1004.8 |
| 20260504235437 | 81 | 131 | 0.0 | 1.0 | 0.00 | 0.00 | 0.00 | 62 | 1004.6 |
| 20260504234932 | 82 | 169 | 2.0 | 3.0 | 0.00 | 0.00 | 0.00 | 61 | 1004.7 |
| 20260504234430 | 82 | 206 | 4.0 | 7.0 | 0.00 | 0.00 | 0.00 | 61 | 1004.7 |
| 20260504233926 | 83 | 140 | 0.0 | 3.0 | 0.00 | 0.00 | 0.00 | 60 | 1004.7 |
| 20260504233422 | 83 | 145 | 1.0 | 1.0 | 0.00 | 0.00 | 0.00 | 60 | 1004.5 |
| 20260504232920 | 83 | 217 | 2.0 | 5.0 | 0.00 | 0.00 | 0.00 | 60 | 1004.6 |
| 20260504232417 | 83 | 198 | 3.0 | 3.0 | 0.00 | 0.00 | 0.00 | 60 | 1004.5 |
| 20260504231914 | 83 | 149 | 3.0 | 9.0 | 0.00 | 0.00 | 0.00 | 60 | 1004.4 |
| 20260504231409 | 83 | 156 | 5.0 | 9.0 | 0.00 | 0.00 | 0.00 | 60 | 1004.4 |
| 20260504230906 | 84 | 206 | 6.0 | 10.0 | 0.00 | 0.00 | 0.00 | 58 | 1004.6 |
| 20260504230403 | 84 | 160 | 3.0 | 6.0 | 0.00 | 0.00 | 0.00 | 58 | 1004.6 |
| 20260504225902 | 84 | 152 | 5.0 | 8.0 | 0.00 | 0.00 | 0.00 | 58 | 1004.7 |
| 20260504225358 | 84 | 139 | 2.0 | 5.0 | 0.00 | 0.00 | 0.00 | 59 | 1004.7 |
| 20260504224856 | 84 | 193 | 3.0 | 8.0 | 0.00 | 0.00 | 0.00 | 58 | 1004.9 |
| 20260504224352 | 84 | 207 | 8.0 | 10.0 | 0.00 | 0.00 | 0.00 | 57 | 1004.7 |
| 20260504223849 | 85 | 171 | 1.0 | 2.0 | 0.00 | 0.00 | 0.00 | 56 | 1004.9 |
| 20260504223344 | 86 | 126 | 5.0 | 8.0 | 0.00 | 0.00 | 0.00 | 55 | 1004.8 |
| 20260504222841 | 86 | 218 | 5.0 | 9.0 | 0.00 | 0.00 | 0.00 | 55 | 1004.3 |
| 20260504222338 | 85 | 186 | 5.0 | 10.0 | 0.00 | 0.00 | 0.00 | 55 | 1004.8 |
| 20260504221837 | 85 | 177 | 6.0 | 11.0 | 0.00 | 0.00 | 0.00 | 56 | 1004.6 |
| 20260504221333 | 85 | 176 | 4.0 | 5.0 | 0.00 | 0.00 | 0.00 | 56 | 1004.7 |
| 20260504220830 | 86 | 158 | 7.0 | 9.0 | 0.00 | 0.00 | 0.00 | 54 | 1004.6 |
| 20260504220327 | 87 | 154 | 2.0 | 3.0 | 0.00 | 0.00 | 0.00 | 54 | 1005.0 |
| 20260504215824 | 86 | 120 | 3.0 | 3.0 | 0.00 | 0.00 | 0.00 | 55 | 1005.1 |
| 20260504215320 | 86 | 205 | 3.0 | 5.0 | 0.00 | 0.00 | 0.00 | 53 | 1004.9 |
| 20260504214816 | 87 | 203 | 4.0 | 9.0 | 0.00 | 0.00 | 0.00 | 52 | 1005.0 |
| 20260504214314 | 87 | 198 | 3.0 | 3.0 | 0.00 | 0.00 | 0.00 | 52 | 1005.0 |
| 20260504213810 | 88 | 199 | 3.0 | 6.0 | 0.00 | 0.00 | 0.00 | 52 | 1005.1 |
| 20260504213306 | 87 | 172 | 1.0 | 2.0 | 0.00 | 0.00 | 0.00 | 52 | 1005.0 |
| 20260504212804 | 87 | 211 | 4.0 | 6.0 | 0.00 | 0.00 | 0.00 | 52 | 1005.3 |
| 20260504212300 | 87 | 157 | 2.0 | 3.0 | 0.00 | 0.00 | 0.00 | 53 | 1005.4 |
| 20260504211758 | 85 | 204 | 5.0 | 6.0 | 0.00 | 0.00 | 0.00 | 54 | 1005.5 |
| 20260504211253 | 86 | 169 | 2.0 | 2.0 | 0.00 | 0.00 | 0.00 | 54 | 1005.5 |
| 20260504210751 | 86 | 224 | 2.0 | 3.0 | 0.00 | 0.00 | 0.00 | 52 | 1005.6 |
| 20260504210248 | 86 | 134 | 7.0 | 11.0 | 0.00 | 0.00 | 0.00 | 53 | 1005.5 |
| 20260504205745 | 86 | 186 | 2.0 | 2.0 | 0.00 | 0.00 | 0.00 | 53 | 1005.9 |
| 20260504205243 | 86 | 174 | 3.0 | 3.0 | 0.00 | 0.00 | 0.00 | 54 | 1006.0 |
| 20260504204741 | 86 | 162 | 6.0 | 13.0 | 0.00 | 0.00 | 0.00 | 52 | 1006.1 |
| 20260504204239 | 86 | 205 | 9.0 | 13.0 | 0.00 | 0.00 | 0.00 | 54 | 1006.2 |
| 20260504203738 | 87 | 158 | 10.0 | 14.0 | 0.00 | 0.00 | 0.00 | 53 | 1006.0 |
| 20260504203235 | 86 | 195 | 4.0 | 7.0 | 0.00 | 0.00 | 0.00 | 52 | 1006.0 |
| 20260504202735 | 85 | 203 | 6.0 | 7.0 | 0.00 | 0.00 | 0.00 | 53 | 1006.2 |
| 20260504202232 | 86 | 205 | 12.0 | 14.0 | 0.00 | 0.00 | 0.00 | 53 | 1006.4 |
| 20260504201729 | 87 | 169 | 1.0 | 2.0 | 0.00 | 0.00 | 0.00 | 52 | 1006.5 |
| 20260504201226 | 86 | 180 | 2.0 | 2.0 | 0.00 | 0.00 | 0.00 | 53 | 1006.4 |
| 20260504200724 | 86 | 197 | 3.0 | 5.0 | 0.00 | 0.00 | 0.00 | 53 | 1006.6 |
| 20260504200220 | 84 | 219 | 14.0 | 16.0 | 0.00 | 0.00 | 0.00 | 53 | 1006.9 |
| 20260504195716 | 84 | 223 | 7.0 | 8.0 | 0.00 | 0.00 | 0.00 | 53 | 1006.9 |
| 20260504195212 | 86 | 205 | 5.0 | 8.0 | 0.00 | 0.00 | 0.00 | 52 | 1007.1 |
| 20260504194710 | 84 | 116 | 4.0 | 8.0 | 0.00 | 0.00 | 0.00 | 54 | 1007.2 |
| 20260504194206 | 84 | 204 | 5.0 | 7.0 | 0.00 | 0.00 | 0.00 | 52 | 1007.0 |
| 20260504193702 | 86 | 203 | 7.0 | 8.0 | 0.00 | 0.00 | 0.00 | 53 | 1007.2 |
| 20260504193200 | 85 | 210 | 4.0 | 5.0 | 0.00 | 0.00 | 0.00 | 55 | 1007.4 |
| 20260504192658 | 86 | 210 | 11.0 | 14.0 | 0.00 | 0.00 | 0.00 | 53 | 1007.6 |
| 20260504192156 | 84 | 155 | 3.0 | 5.0 | 0.00 | 0.00 | 0.00 | 53 | 1007.5 |
| 20260504191654 | 84 | 226 | 11.0 | 14.0 | 0.00 | 0.00 | 0.00 | 55 | 1007.7 |
| 20260504191150 | 85 | 177 | 5.0 | 7.0 | 0.00 | 0.00 | 0.00 | 54 | 1007.6 |
| 20260504190646 | 83 | 165 | 6.0 | 11.0 | 0.00 | 0.00 | 0.00 | 54 | 1007.3 |
| 20260504190143 | 84 | 201 | 7.0 | 9.0 | 0.00 | 0.00 | 0.00 | 55 | 1007.9 |
| 20260504185639 | 83 | 169 | 2.0 | 2.0 | 0.00 | 0.00 | 0.00 | 53 | 1007.8 |
| 20260504185136 | 83 | 188 | 9.0 | 11.0 | 0.00 | 0.00 | 0.00 | 55 | 1008.1 |
| 20260504184632 | 83 | 213 | 3.0 | 8.0 | 0.00 | 0.00 | 0.00 | 54 | 1008.0 |
| 20260504184127 | 82 | 224 | 9.0 | 10.0 | 0.00 | 0.00 | 0.00 | 58 | 1008.1 |
| 20260504183624 | 81 | 201 | 7.0 | 8.0 | 0.00 | 0.00 | 0.00 | 58 | 1008.2 |
| 20260504183122 | 82 | 163 | 2.0 | 5.0 | 0.00 | 0.00 | 0.00 | 56 | 1008.1 |
| 20260504182619 | 81 | 226 | 12.0 | 14.0 | 0.00 | 0.00 | 0.00 | 58 | 1008.4 |
| 20260504182117 | 82 | 206 | 9.0 | 11.0 | 0.00 | 0.00 | 0.00 | 56 | 1008.2 |
| 20260504181614 | 82 | 212 | 8.0 | 9.0 | 0.00 | 0.00 | 0.00 | 57 | 1008.4 |
| 20260504181111 | 81 | 169 | 3.0 | 7.0 | 0.00 | 0.00 | 0.00 | 60 | 1008.5 |
| 20260504180610 | 79 | 207 | 8.0 | 10.0 | 0.00 | 0.00 | 0.00 | 59 | 1008.7 |
| 20260504180109 | 80 | 204 | 12.0 | 14.0 | 0.00 | 0.00 | 0.00 | 59 | 1008.8 |
| 20260504175606 | 80 | 192 | 4.0 | 6.0 | 0.00 | 0.00 | 0.00 | 57 | 1008.8 |
| 20260504175102 | 80 | 206 | 9.0 | 10.0 | 0.00 | 0.00 | 0.00 | 60 | 1008.8 |
| 20260504174600 | 78 | 189 | 3.0 | 6.0 | 0.00 | 0.00 | 0.00 | 59 | 1008.9 |
| 20260504174057 | 80 | 212 | 7.0 | 9.0 | 0.00 | 0.00 | 0.00 | 58 | 1009.0 |
| 20260504173554 | 78 | 230 | 16.0 | 18.0 | 0.00 | 0.00 | 0.00 | 61 | 1008.9 |
| 20260504173051 | 79 | 170 | 3.0 | 6.0 | 0.00 | 0.00 | 0.00 | 61 | 1009.1 |
| 20260504172547 | 79 | 154 | 4.0 | 6.0 | 0.00 | 0.00 | 0.00 | 59 | 1008.8 |
| 20260504172044 | 79 | 216 | 10.0 | 13.0 | 0.00 | 0.00 | 0.00 | 59 | 1009.3 |
| 20260504171541 | 79 | 195 | 3.0 | 5.0 | 0.00 | 0.00 | 0.00 | 58 | 1009.3 |
| 20260504171038 | 78 | 220 | 3.0 | 5.0 | 0.00 | 0.00 | 0.00 | 60 | 1009.4 |
| 20260504170533 | 79 | 193 | 3.0 | 6.0 | 0.00 | 0.00 | 0.00 | 58 | 1009.5 |
| 20260504150918 | 71 | 162 | 2.0 | 2.0 | 0.00 | 0.00 | 0.00 | 68 | 1010.5 |
| 20260504150414 | 72 | 182 | 3.0 | 3.0 | 0.00 | 0.00 | 0.00 | 67 | 1010.6 |
| 20260504140841 | 68 | 178 | 5.0 | 7.0 | 0.00 | 0.00 | 0.00 | 72 | 1011.2 |
| 20260504140336 | 67 | 167 | 3.0 | 7.0 | 0.00 | 0.00 | 0.00 | 73 | 1011.2 |
| 20260504130805 | 60 | 149 | 3.0 | 5.0 | 0.00 | 0.00 | 0.00 | 82 | 1010.9 |
| 20260504130301 | 60 | 141 | 1.0 | 2.0 | 0.00 | 0.00 | 0.00 | 83 | 1010.9 |
| 20260504120225 | 56 | 147 | 3.0 | 3.0 | 0.00 | 0.00 | 0.00 | 84 | 1010.3 |
| 20260504110652 | 56 | 138 | 1.0 | 1.0 | 0.00 | 0.00 | 0.00 | 81 | 1010.7 |
| 20260504110149 | 56 | 132 | 1.0 | 1.0 | 0.00 | 0.00 | 0.00 | 82 | 1010.6 |
| 20260504100615 | 56 | 152 | 2.0 | 2.0 | 0.00 | 0.00 | 0.00 | 80 | 1011.2 |
| 20260504100113 | 56 | 122 | 0.0 | 0.0 | 0.00 | 0.00 | 0.00 | 80 | 1011.1 |
| 20260504081506 | 58 | 134 | 1.0 | 1.0 | 0.00 | 0.00 | 0.00 | 72 | 1012.1 |
| 20260504081001 | 58 | 134 | 0.0 | 0.0 | 0.00 | 0.00 | 0.00 | 72 | 1012.2 |
| 20260504080458 | 58 | 135 | 0.0 | 0.0 | 0.00 | 0.00 | 0.00 | 72 | 1012.3 |
| 20260504050311 | 63 | 162 | 0.0 | 0.0 | 0.00 | 0.00 | 0.00 | 61 | 1014.1 |
| 20260504045809 | 63 | 176 | 2.0 | 3.0 | 0.00 | 0.00 | 0.00 | 60 | 1014.0 |
| 20260504045309 | 64 | 161 | 2.0 | 6.0 | 0.00 | 0.00 | 0.00 | 60 | 1014.0 |
| 20260504044806 | 64 | 147 | 2.0 | 5.0 | 0.00 | 0.00 | 0.00 | 60 | 1013.8 |
| 20260504044303 | 64 | 153 | 2.0 | 3.0 | 0.00 | 0.00 | 0.00 | 59 | 1014.2 |
| 20260504043800 | 65 | 152 | 0.0 | 0.0 | 0.00 | 0.00 | 0.00 | 58 | 1014.2 |
| 20260504043257 | 66 | 148 | 0.0 | 1.0 | 0.00 | 0.00 | 0.00 | 56 | 1014.4 |
| 20260504042755 | 66 | 144 | 0.0 | 0.0 | 0.00 | 0.00 | 0.00 | 56 | 1014.3 |
| 20260504042251 | 66 | 144 | 1.0 | 2.0 | 0.00 | 0.00 | 0.00 | 55 | 1014.7 |
| 20260504041747 | 66 | 143 | 0.0 | 0.0 | 0.00 | 0.00 | 0.00 | 55 | 1014.5 |
| 20260504041243 | 66 | 144 | 0.0 | 0.0 | 0.00 | 0.00 | 0.00 | 56 | 1014.3 |
| 20260504040739 | 65 | 145 | 0.0 | 1.0 | 0.00 | 0.00 | 0.00 | 56 | 1014.7 |
| 20260504040238 | 65 | 154 | 0.0 | 0.0 | 0.00 | 0.00 | 0.00 | 56 | 1014.6 |
| 20260504035733 | 65 | 138 | 0.0 | 0.0 | 0.00 | 0.00 | 0.00 | 58 | 1014.6 |
| 20260504035231 | 64 | 138 | 0.0 | 0.0 | 0.00 | 0.00 | 0.00 | 59 | 1014.6 |
| 20260504034728 | 64 | 138 | 0.0 | 0.0 | 0.00 | 0.00 | 0.00 | 60 | 1014.5 |
| 20260504034225 | 64 | 146 | 0.0 | 0.0 | 0.00 | 0.00 | 0.00 | 60 | 1014.6 |
| 20260504033723 | 64 | 144 | 0.0 | 0.0 | 0.00 | 0.00 | 0.00 | 60 | 1014.6 |
| 20260504033220 | 64 | 145 | 0.0 | 0.0 | 0.00 | 0.00 | 0.00 | 59 | 1014.7 |
| 20260504032717 | 64 | 141 | 0.0 | 0.0 | 0.00 | 0.00 | 0.00 | 59 | 1014.7 |
| 20260504032214 | 64 | 143 | 0.0 | 0.0 | 0.00 | 0.00 | 0.00 | 59 | 1014.5 |
| 20260504031711 | 64 | 145 | 0.0 | 0.0 | 0.00 | 0.00 | 0.00 | 58 | 1014.5 |
| 20260504031208 | 64 | 144 | 0.0 | 0.0 | 0.00 | 0.00 | 0.00 | 59 | 1014.8 |
| 20260504030704 | 64 | 140 | 0.0 | 0.0 | 0.00 | 0.00 | 0.00 | 59 | 1014.7 |
| 20260504030201 | 65 | 139 | 0.0 | 0.0 | 0.00 | 0.00 | 0.00 | 58 | 1014.4 |
| 20260504025657 | 66 | 149 | 0.0 | 0.0 | 0.00 | 0.00 | 0.00 | 57 | 1014.5 |
| 20260504025155 | 66 | 138 | 0.0 | 0.0 | 0.00 | 0.00 | 0.00 | 55 | 1014.5 |
| 20260504024652 | 67 | 142 | 0.0 | 0.0 | 0.00 | 0.00 | 0.00 | 55 | 1014.3 |
| 20260504024148 | 67 | 149 | 0.0 | 0.0 | 0.00 | 0.00 | 0.00 | 54 | 1014.7 |
| 20260504023645 | 67 | 141 | 0.0 | 0.0 | 0.00 | 0.00 | 0.00 | 54 | 1014.5 |
| 20260504023141 | 67 | 140 | 0.0 | 0.0 | 0.00 | 0.00 | 0.00 | 54 | 1014.7 |
| 20260504022637 | 67 | 140 | 0.0 | 0.0 | 0.00 | 0.00 | 0.00 | 54 | 1014.7 |
| 20260504022133 | 68 | 140 | 0.0 | 0.0 | 0.00 | 0.00 | 0.00 | 53 | 1014.5 |
| 20260504021631 | 68 | 140 | 0.0 | 0.0 | 0.00 | 0.00 | 0.00 | 52 | 1014.1 |
| 20260504021127 | 68 | 141 | 0.0 | 0.0 | 0.00 | 0.00 | 0.00 | 52 | 1014.0 |
| 20260504020625 | 68 | 141 | 0.0 | 0.0 | 0.00 | 0.00 | 0.00 | 51 | 1014.0 |
| 20260504020121 | 68 | 141 | 0.0 | 0.0 | 0.00 | 0.00 | 0.00 | 51 | 1014.0 |
| 20260504015617 | 69 | 140 | 0.0 | 0.0 | 0.00 | 0.00 | 0.00 | 50 | 1013.9 |
| 20260504015114 | 69 | 148 | 0.0 | 0.0 | 0.00 | 0.00 | 0.00 | 50 | 1014.2 |
| 20260504014610 | 69 | 141 | 0.0 | 0.0 | 0.00 | 0.00 | 0.00 | 49 | 1014.0 |
| 20260504014107 | 70 | 140 | 0.0 | 0.0 | 0.00 | 0.00 | 0.00 | 49 | 1014.2 |
| 20260504013604 | 70 | 143 | 0.0 | 0.0 | 0.00 | 0.00 | 0.00 | 48 | 1014.2 |
| 20260504013101 | 70 | 178 | 0.0 | 1.0 | 0.00 | 0.00 | 0.00 | 47 | 1013.9 |
| 20260504012558 | 71 | 140 | 0.0 | 0.0 | 0.00 | 0.00 | 0.00 | 47 | 1014.0 |
| 20260504012057 | 71 | 144 | 0.0 | 0.0 | 0.00 | 0.00 | 0.00 | 46 | 1014.0 |
| 20260504011553 | 72 | 141 | 0.0 | 0.0 | 0.00 | 0.00 | 0.00 | 45 | 1014.1 |